Flag for Japan Weather past 2 weeks in Suzuka, Japan

Now
54 °F

Cool.


Feels Like: 50 °F
Forecast: 38 / 46 °F
Wind: 16 mph from West

Location: Tsu

Current Time: Mar 4, 2015 at 1:34:46 PM

Latest Report: Mar 4, 2015 at 11:00 AM


Visibility: N/A

Pressure: 29.83 "Hg

Humidity: 52%

Dew point: 37 °F

Location of SuzukaLocation

Historic Weather in Suzuka — Graph

°F

Suzuka temperature yesterday

Maximum temperature yesterday: 48 °F (at 2:00 PM)
Minimum temperature yesterday: 35 °F (at 5:00 AM)
Average temperature yesterday: 42 °F

Past Weeks' High & Low Weather Summary

 TemperatureHumidityPressure
High60 °F (Feb 23, 1:00 PM)96% (Feb 22, 11:00 PM)30.37 "Hg (Feb 22, 11:00 PM)
Low33 °F (Feb 21, 7:00 AM)29% (Feb 28, 2:00 PM)29.62 "Hg (Mar 4, 3:00 AM)
Average46 °F68%30.04 "Hg
* Reported Feb 17 11:00 AM — Mar 4 11:00 AM, Suzuka, Weather by CustomWeather, © 2015

Note: Actual official high and low records may vary slightly from our data, if they occured in-between our weather recording intervals... More about our weather records

Advertising

Suzuka weather history for previous 24 hours

 ConditionsComfort  
Time TempWeatherWind HumidityBarometerVisibility
11:00 AM
Wed, Mar 4
54 °FCool.16 mph52%29.83 "HgN/A
10:00 AM52 °FCool.12 mph60%29.83 "HgN/A
9:00 AM50 °FOvercast.6 mph69%29.81 "Hg12 mi
8:00 AM49 °FCool.5 mph69%29.79 "HgN/A
7:00 AM49 °FCool.6 mph72%29.75 "HgN/A
6:00 AM48 °FCool.5 mph83%29.73 "HgN/A
5:00 AM48 °FCool.8 mph85%29.69 "HgN/A
3:00 AM48 °FCool.8 mph94%29.62 "HgN/A
2:00 AM46 °FCool.7 mph95%29.64 "HgN/A
1:00 AM46 °FCool.14 mph94%29.69 "HgN/A
12:00 AM44 °FQuite cool.9 mph96%29.74 "HgN/A
11:00 PM
Tue, Mar 3
45 °FQuite cool.12 mph94%29.79 "HgN/A
10:00 PM44 °FQuite cool.9 mph94%29.83 "HgN/A
9:00 PM46 °FLight rain. Overcast.13 mph91%29.86 "Hg5 mi
8:00 PM44 °FQuite cool.7 mph89%29.90 "HgN/A
7:00 PM44 °FQuite cool.5 mph86%29.93 "HgN/A
6:00 PM45 °FCool.3 mph75%29.93 "HgN/A
5:00 PM46 °FCool.1 mph67%29.96 "HgN/A
4:00 PM47 °FCool.3 mph60%30.00 "HgN/A
3:00 PM47 °FOvercast.5 mph52%30.02 "Hg9 mi
2:00 PM48 °FCool.2 mph39%30.06 "HgN/A
1:00 PM46 °FCool.7 mph58%30.08 "HgN/A
Weather by CustomWeather, © 2015

See weather overviewHow to use our weather pages